Regional Weather Roundup
Issued by NWS

Home | Current Version | Previous Version | Text Only | Print | Product List | Glossary Off
Versions: 1 2 3 4 5 6 7 8 9 10 11 12 13 14 15 16 17 18 19 20 21 22 23 24 25 26 27 28 29 30 31 32 33 34 35 36 37 38 39 40 41 42 43 44 45 46 47 48 49 50

000
ASUS43 KIND 300509
RWRIN

WEATHER ROUNDUP FOR INDIANA
NATIONAL WEATHER SERVICE INDIANAPOLIS IN
100 AM EDT SAT APR 30 2016

NOTE: "FAIR" INDICATES FEW OR NO CLOUDS BELOW 12,000 FEET WITH NO
SIGNIFICANT WEATHER AND/OR OBSTRUCTIONS TO VISIBILITY.

* - STATION DOES NOT REPORT WEATHER SUCH AS PRECIPITATION OR FOG.

+ - STATION NOT QUALITY CONTROLLED BY THE NATIONAL WEATHER SERVICE.
    USE DATA WITH CAUTION...ESPECIALLY DEWPOINT AND RELATIVE
    HUMIDITY OBSERVATIONS.

INZ001>003-010>013-019-020-300600-
NORTHWEST INDIANA

CITY           SKY/WX    TMP DP  RH WIND       PRES   REMARKS
GARY /AIRPORT/ CLOUDY    45  45 100 NE5       30.11F
KNOX *+        CLOUDY    41  37  87 CALM      30.09F
LA PORTE +     CLOUDY    45  45 100 NE5       30.10F
MICHIGAN CITY+ CLOUDY    43  43 100 CALM      30.10F
MONTICELLO +   CLOUDY    47  44  87 NE7       30.07F
RENSSELAER +   CLOUDY    45  43  93 NE6       30.09S FOG
VALPARAISO     CLOUDY    42  40  92 CALM      30.10F

$$

LMZ046-743>745-300600-
SOUTHERN LAKE MICHIGAN

STATION/POSITION TIME  TEMP    WIND        PRES    WAVE
                       AIR SEA DIR/SP/G            HT
                 (UTC) (F)     (DEG/KT/KT) (MB)    (FT)
BURNS HARBOR     0400   44      60/  9/ 10 1020.3F
MICHIGAN CITY    0400   45      10/  7/  7   N/A

$$

INZ004-005-014>016-021>024-300600-
NORTH CENTRAL INDIANA

CITY           SKY/WX    TMP DP  RH WIND       PRES   REMARKS
GOSHEN         PTCLDY    48  43  82 E10       30.10F
LOGANSPORT +   PTCLDY    48  45  87 E6        30.08F
PERU/GRISSOM   CLOUDY    49  47  90 E8        30.06F
ROCHESTER +    CLOUDY    46  45  93 E6        30.09F
SOUTH BEND     CLEAR     44  42  93 NE5       30.10F
WARSAW +       CLOUDY    46  43  87 E6        30.10F

$$

INZ006>009-017-018-025>027-300600-
NORTHEAST INDIANA

CITY           SKY/WX    TMP DP  RH WIND       PRES   REMARKS
ANGOLA *+      CLOUDY    46  34  61 E8        30.13F
AUBURN +       CLOUDY    46  41  81 E7        30.13F
FORT WAYNE     MOCLDY    47  42  83 E10       30.12F
HUNTINGTON +   CLOUDY   N/A N/A N/A E5        30.11S

$$

INZ028-029-035-036-043>045-051>053-300600-
WEST CENTRAL INDIANA

CITY           SKY/WX    TMP DP  RH WIND       PRES   REMARKS
CRAWFORDSVL +  CLOUDY    51  49  93 NE7       30.05F
GREENCASTLE +  CLOUDY    54  50  87 E9        30.04F
LAFAYETTE      PTCLDY    49  45  86 NE9       30.07S
TERRE HAUTE    CLOUDY    56  49  77 E12       30.01F

$$

INZ030>032-037>040-046>048-054>057-064-065-300600-
CENTRAL INDIANA

CITY           SKY/WX    TMP DP  RH WIND       PRES   REMARKS
CP ATTERBURY + CLOUDY    55  50  82 E10       30.05F
FRANKFORT +      N/A     52  41  67 E12       30.09S
GREENWOOD *+   CLOUDY    54  46  76 E10G18    30.06F
INDIANAPOLIS   CLOUDY    55  47  74 E13       30.05S
-EAGLE CREEK   CLOUDY    54  47  77 E9        30.06S
KOKOMO *+      MOCLDY    48  43  81 E8        30.08F
MARION +       PTCLDY    50  43  79 E7        30.10S
SHELBYVILLE    CLOUDY    55  48  77 E13       30.05F
ZIONSVILLE +   CLOUDY    51  47  84 E6        30.09R

$$

INZ033-034-041-042-049-050-058-059-300600-
EAST CENTRAL INDIANA

CITY           SKY/WX    TMP DP  RH WIND       PRES   REMARKS
MUNCIE         MOCLDY    51  46  83 E6        30.10S

$$

INZ060-061-067>069-081>083-085>088-300600-
SOUTHWEST INDIANA

CITY           SKY/WX    TMP DP  RH WIND       PRES   REMARKS
EVANSVILLE     LGT RAIN  61  54  77 NE6       29.98F
HUNTINGBURG *+ CLOUDY    61  52  72 E8        29.98F
WASHINGTON +   CLOUDY    61  53  76 E6        29.98S

$$

INZ062-063-066-070>080-084-089>092-300600-
SOUTH CENTRAL AND SOUTHEAST INDIANA

CITY           SKY/WX    TMP DP  RH WIND       PRES   REMARKS
BEDFORD +      CLOUDY    61  55  82 NE9       29.99F
BLOOMINGTON    CLOUDY    60  48  64 E8        30.01F
MADISON *+     CLOUDY    59  48  67 NE13      30.04F
NORTH VERNON + CLOUDY    59  55  88 E9G16     30.04F
SEYMOUR +      CLOUDY    63  50  63 NE10      30.02F

$$





USA.gov is the U.S. government's official web portal to all federal, state and local government web resources and services.